�N����,����,�~����,�C��,���x,�C��,����,���ϕ���,�ő�u�ԕ���,�ő厞����,���˗�,�I�_���x,�n�����x,�ő啗���N��,DTYPE
"18/07/18","00:10",0.0,26.6,87.9,1005.0,283.0,0.8,1.4,265.1,0.00,24.5,27.5,"00:03:04",1
"18/07/18","00:20",0.0,26.6,87.9,1004.8,301.6,0.8,1.6,330.4,0.00,24.5,27.5,"00:16:16",1
"18/07/18","00:30",0.0,26.5,88.5,1004.5,279.7,0.7,1.4,322.0,0.00,24.5,27.4,"00:21:36",1
"18/07/18","00:40",0.0,26.4,88.5,1004.5,297.9,0.8,1.2,324.2,0.00,24.4,27.4,"00:31:12",1
"18/07/18","00:50",0.0,26.3,88.8,1004.5,273.6,0.7,1.6,236.6,0.00,24.3,27.4,"00:44:32",1
"18/07/18","01:00",0.0,26.3,89.1,1004.5,295.8,0.8,1.8,338.4,0.00,24.4,27.3,"00:58:48",1
"18/07/18","01:10",0.0,26.2,89.2,1004.8,288.1,0.7,1.6,323.4,0.00,24.3,27.1,"01:02:00",1
"18/07/18","01:20",0.0,26.1,89.3,1004.5,272.4,0.6,1.0,264.2,0.00,24.2,27.2,"01:11:12",1
"18/07/18","01:30",0.0,26.0,89.6,1004.8,278.7,0.6,1.3,308.1,0.00,24.2,27.2,"01:21:20",1
"18/07/18","01:40",0.0,26.0,89.5,1004.8,291.3,0.7,1.2,282.5,0.00,24.2,27.2,"01:32:40",1
"18/07/18","01:50",0.0,26.0,89.8,1005.0,311.4,1.0,1.6,319.8,0.00,24.2,27.1,"01:47:28",1
"18/07/18","02:00",0.0,25.9,89.8,1005.2,315.7,1.0,1.9,337.7,0.00,24.1,27.1,"01:52:16",1
"18/07/18","02:10",0.0,25.9,89.9,1005.2,313.1,1.2,2.6,332.2,0.00,24.2,27.1,"02:06:56",1
"18/07/18","02:20",0.0,25.9,89.8,1005.5,322.8,1.2,2.4,313.3,0.00,24.1,26.9,"02:16:56",1
"18/07/18","02:30",0.0,25.9,89.8,1005.2,265.2,0.7,1.1,281.4,0.00,24.1,26.9,"02:20:24",1
"18/07/18","02:40",0.0,25.8,89.9,1005.2,282.0,0.7,1.3,274.2,0.00,24.1,26.9,"02:30:08",1
"18/07/18","02:50",0.0,25.8,90.0,1005.5,303.8,1.1,1.9,312.5,0.00,24.1,26.7,"02:44:56",1
"18/07/18","03:00",0.0,25.7,90.1,1005.2,321.2,1.2,1.8,338.5,0.00,24.0,26.8,"02:50:40",1
"18/07/18","03:10",0.0,25.6,90.2,1005.5,312.6,1.0,1.9,327.0,0.00,23.9,26.7,"03:01:20",1
"18/07/18","03:20",0.0,25.5,90.5,1005.7,295.0,0.7,1.2,300.0,0.00,23.9,26.8,"03:15:52",1
"18/07/18","03:30",0.0,25.5,90.7,1005.7,304.5,0.7,2.2,317.0,0.00,23.9,26.7,"03:29:44",1
"18/07/18","03:40",0.0,25.6,90.6,1005.2,327.9,1.5,2.9,346.5,0.00,24.0,26.6,"03:30:40",1
"18/07/18","03:50",0.0,25.6,90.6,1005.5,315.4,1.1,1.9,318.3,0.00,24.0,26.7,"03:41:44",1
"18/07/18","04:00",0.0,25.5,91.1,1005.5,282.1,0.6,1.0,330.0,0.00,24.0,26.6,"03:50:56",1
"18/07/18","04:10",0.0,25.4,91.0,1005.5,286.8,0.6,0.8,278.4,0.00,23.9,26.6,"04:00:08",1
"18/07/18","04:20",0.0,25.2,91.1,1005.7,287.7,0.6,1.0,317.9,0.00,23.7,26.6,"04:12:00",1
"18/07/18","04:30",0.0,25.1,91.5,1005.7,311.8,0.8,2.4,334.4,0.00,23.7,26.4,"04:20:02",1
"18/07/18","04:40",0.0,25.2,91.5,1005.5,311.7,1.3,2.7,344.2,0.00,23.8,26.6,"04:31:04",1
"18/07/18","04:50",0.0,25.2,91.4,1005.7,282.6,0.6,1.1,303.5,0.00,23.7,26.5,"04:48:24",1
"18/07/18","05:00",0.0,25.0,91.5,1006.2,299.1,0.6,1.3,339.9,0.00,23.6,26.4,"04:56:16",1
"18/07/18","05:10",0.0,25.0,92.0,1005.7,301.7,0.6,1.3,327.3,0.00,23.6,26.5,"05:05:20",1
"18/07/18","05:20",0.0,25.0,91.8,1006.0,306.4,1.0,2.0,329.2,0.00,23.6,26.3,"05:12:24",1
"18/07/18","05:30",0.0,25.1,91.9,1006.0,306.1,1.2,2.1,320.8,0.00,23.7,26.4,"05:27:04",1
"18/07/18","05:40",0.0,25.2,91.8,1005.7,299.9,1.0,1.9,314.9,0.00,23.8,26.3,"05:38:32",1
"18/07/18","05:50",0.0,25.2,91.8,1006.0,325.1,1.5,2.1,336.8,0.00,23.8,26.3,"05:40:32",1
"18/07/18","06:00",0.0,25.3,91.8,1006.0,330.1,1.5,2.9,342.3,0.00,23.9,26.2,"05:56:24",1
"18/07/18","06:10",0.0,25.5,91.9,1006.0,306.3,1.2,2.5,319.4,0.01,24.1,26.2,"06:05:36",1
"18/07/18","06:20",0.0,25.8,91.5,1005.5,305.0,1.0,2.2,339.6,0.02,24.3,26.3,"06:15:12",1
"18/07/18","06:30",0.0,26.2,90.7,1005.7,326.9,0.7,1.7,342.5,0.03,24.6,26.3,"06:21:44",1
"18/07/18","06:40",0.0,26.6,89.6,1005.5,1.4,0.7,1.3,354.2,0.05,24.8,26.2,"06:33:36",1
"18/07/18","06:50",0.0,27.1,88.4,1005.7,347.9,0.8,1.8,337.9,0.06,25.1,26.4,"06:46:24",1
"18/07/18","07:00",0.0,27.8,85.6,1005.7,4.5,0.6,1.6,26.4,0.08,25.2,26.4,"06:59:44",1
"18/07/18","07:10",0.0,28.4,83.6,1005.5,10.6,0.6,1.2,349.0,0.09,25.4,26.3,"07:00:02",1
"18/07/18","07:20",0.0,28.8,81.4,1005.2,40.6,0.6,1.3,34.6,0.11,25.3,26.4,"07:10:48",1
"18/07/18","07:30",0.0,29.1,79.4,1005.0,4.8,0.5,1.1,333.2,0.13,25.2,26.4,"07:21:04",1
"18/07/18","07:40",0.0,29.2,77.2,1005.7,104.1,0.6,1.3,116.1,0.16,24.8,26.5,"07:39:20",1
"18/07/18","07:50",0.0,29.4,77.7,1006.2,99.3,0.6,1.4,124.1,0.18,25.1,26.7,"07:42:32",1
"18/07/18","08:00",0.0,30.0,74.6,1006.0,54.7,0.6,1.4,6.4,0.20,25.0,26.7,"07:55:28",1
"18/07/18","08:10",0.0,29.8,75.8,1005.7,26.0,0.5,1.2,12.1,0.22,25.1,26.8,"08:02:32",1
"18/07/18","08:20",0.0,30.5,75.6,1006.0,53.2,0.5,1.4,10.2,0.25,25.7,26.9,"08:13:28",1
"18/07/18","08:30",0.0,30.8,73.2,1006.7,75.0,0.5,1.4,37.5,0.27,25.5,26.9,"08:22:24",1
"18/07/18","08:40",0.0,30.5,72.7,1006.2,29.9,0.5,1.2,352.6,0.29,25.1,27.1,"08:38:16",1
"18/07/18","08:50",0.0,31.0,73.0,1006.9,142.3,0.5,1.0,128.3,0.32,25.6,27.1,"08:44:56",1
"18/07/18","09:00",0.0,31.5,71.0,1006.7,80.6,0.8,1.9,123.7,0.34,25.6,27.2,"08:52:08",1
"18/07/18","09:10",0.0,31.8,71.1,1006.7,62.6,0.7,2.4,40.3,0.35,26.0,27.2,"09:02:56",1
"18/07/18","09:20",0.0,32.3,69.4,1006.7,77.6,0.6,1.8,2.5,0.37,26.0,27.3,"09:19:36",1
"18/07/18","09:30",0.0,31.8,70.2,1006.7,359.1,0.7,2.1,317.7,0.40,25.7,27.5,"09:24:16",1
"18/07/18","09:40",0.0,31.9,66.8,1006.7,17.6,0.8,1.8,346.1,0.42,25.0,27.6,"09:31:28",1
"18/07/18","09:50",0.0,32.5,66.6,1007.1,52.5,0.7,1.8,45.3,0.44,25.5,27.5,"09:47:52",1
"18/07/18","10:00",0.0,33.3,66.6,1006.9,54.2,0.8,2.1,358.4,0.46,26.3,27.9,"09:52:16",1
"18/07/18","10:10",0.0,34.0,62.9,1007.4,125.5,0.6,1.4,20.0,0.47,26.0,28.2,"10:03:44",1
"18/07/18","10:20",0.0,33.5,66.0,1007.1,149.8,1.1,2.2,158.4,0.49,26.3,28.4,"10:16:24",1
"18/07/18","10:30",0.0,34.2,59.6,1007.6,138.5,0.7,1.7,186.4,0.49,25.2,28.4,"10:21:04",1
"18/07/18","10:40",0.0,34.6,60.0,1007.1,122.7,0.5,1.9,127.9,0.50,25.7,28.6,"10:35:36",1
"18/07/18","10:50",0.0,34.6,63.6,1007.4,116.1,0.8,2.0,138.5,0.51,26.7,28.8,"10:41:28",1
"18/07/18","11:00",0.0,34.6,61.5,1007.1,149.4,1.0,2.8,155.9,0.52,26.2,29.0,"10:56:16",1
"18/07/18","11:10",0.0,35.0,57.3,1006.9,195.3,0.6,2.2,140.7,0.53,25.3,29.2,"11:00:32",1
"18/07/18","11:20",0.0,35.4,59.0,1006.9,183.3,0.5,1.7,232.0,0.54,26.2,29.2,"11:14:48",1
"18/07/18","11:30",0.0,35.0,61.5,1007.1,165.7,1.3,2.4,185.9,0.54,26.5,29.6,"11:20:08",1
"18/07/18","11:40",0.0,33.9,61.4,1006.9,185.4,1.0,2.1,337.5,0.22,25.5,29.5,"11:38:08",1
"18/07/18","11:50",0.0,35.0,60.7,1006.2,154.2,1.1,2.9,144.5,0.38,26.3,29.7,"11:47:44",1
"18/07/18","12:00",0.0,35.5,57.7,1006.4,203.6,1.1,2.7,223.5,0.54,25.9,30.1,"11:55:20",1
"18/07/18","12:10",0.0,35.4,57.3,1006.0,246.6,1.3,3.9,223.8,0.57,25.7,30.0,"12:09:04",1
"18/07/18","12:20",0.0,35.3,56.1,1006.0,218.8,0.8,2.8,228.7,0.56,25.3,30.1,"12:19:44",1
"18/07/18","12:30",0.0,35.3,56.9,1006.4,192.7,1.1,2.9,205.7,0.48,25.5,30.3,"12:28:08",1
"18/07/18","12:40",0.0,36.0,57.1,1006.2,201.2,1.6,3.7,211.5,0.55,26.2,30.5,"12:34:16",1
"18/07/18","12:50",0.0,36.0,56.4,1005.7,211.7,1.3,3.4,196.5,0.49,26.0,30.7,"12:48:16",1
"18/07/18","13:00",0.0,36.6,54.8,1005.7,227.2,1.2,2.9,213.2,0.57,26.1,30.7,"12:53:12",1
"18/07/18","13:10",0.0,35.9,55.9,1005.7,223.3,1.2,2.9,235.3,0.47,25.8,31.1,"13:01:04",1
"18/07/18","13:20",0.0,36.8,51.8,1006.2,223.9,1.3,3.1,210.6,0.53,25.3,31.1,"13:11:04",1
"18/07/18","13:30",0.0,37.1,51.1,1006.0,231.1,1.5,4.9,197.7,0.52,25.3,30.9,"13:23:36",1
"18/07/18","13:40",0.0,36.4,53.5,1005.5,236.0,1.2,4.2,233.9,0.38,25.5,31.1,"13:32:56",1
"18/07/18","13:50",0.0,36.3,54.8,1005.2,224.1,1.3,4.0,208.3,0.33,25.8,30.8,"13:43:44",1
"18/07/18","14:00",0.0,36.8,50.5,1005.5,289.5,1.1,2.9,16.5,0.41,24.9,30.8,"13:57:20",1
"18/07/18","14:10",0.0,37.9,45.1,1005.2,331.9,1.3,2.9,332.3,0.48,24.0,31.1,"14:09:04",1
"18/07/18","14:20",0.0,37.8,45.2,1005.5,7.8,1.5,3.2,55.3,0.49,23.9,31.1,"14:14:32",1
"18/07/18","14:30",0.0,37.6,45.4,1005.2,26.0,1.2,3.5,8.7,0.43,23.8,31.2,"14:29:44",1
"18/07/18","14:40",0.0,37.6,46.4,1005.2,343.9,1.8,4.0,353.1,0.48,24.2,31.2,"14:35:36",1
"18/07/18","14:50",0.0,37.2,42.2,1005.2,334.7,2.3,5.1,334.5,0.46,22.3,31.2,"14:49:52",1
"18/07/18","15:00",0.0,37.4,42.3,1005.0,327.6,2.1,4.8,314.5,0.43,22.5,31.3,"14:59:20",1
"18/07/18","15:10",0.0,37.3,47.1,1004.5,338.9,2.0,4.2,330.8,0.43,24.2,31.4,"15:07:20",1
"18/07/18","15:20",0.0,37.2,45.0,1004.5,355.4,2.0,4.8,21.0,0.42,23.3,31.1,"15:12:56",1
"18/07/18","15:30",0.0,37.3,44.0,1004.8,349.6,1.8,3.9,342.5,0.40,23.0,31.4,"15:24:48",1
"18/07/18","15:40",0.0,37.4,45.5,1004.8,359.1,1.7,3.9,3.8,0.37,23.7,31.3,"15:35:36",1
"18/07/18","15:50",0.0,37.1,48.3,1004.3,351.2,1.7,3.5,341.7,0.35,24.4,31.3,"15:44:24",1
"18/07/18","16:00",0.0,36.8,46.3,1004.1,350.3,2.0,4.7,351.7,0.33,23.4,31.3,"15:56:56",1
"18/07/18","16:10",0.0,36.6,46.8,1004.8,344.2,2.2,4.0,357.1,0.31,23.4,31.4,"16:00:56",1
"18/07/18","16:20",0.0,37.0,43.4,1004.3,348.0,2.1,5.1,338.9,0.29,22.5,31.2,"16:19:44",1
"18/07/18","16:30",0.0,36.9,43.7,1004.3,347.3,2.2,4.5,346.0,0.26,22.6,31.3,"16:21:52",1
"18/07/18","16:40",0.0,36.7,46.7,1003.6,346.6,1.8,4.9,332.2,0.24,23.5,31.2,"16:36:32",1
"18/07/18","16:50",0.0,36.3,46.9,1003.8,351.7,2.0,4.8,348.4,0.22,23.2,31.2,"16:44:16",1
"18/07/18","17:00",0.0,36.0,45.8,1003.8,342.3,2.2,4.5,353.4,0.19,22.5,31.0,"16:58:48",1
"18/07/18","17:10",0.0,35.6,46.7,1004.3,343.8,2.2,5.2,336.5,0.17,22.5,31.1,"17:02:32",1
"18/07/18","17:20",0.0,35.6,48.4,1004.1,349.3,1.8,4.4,359.2,0.12,23.1,31.0,"17:10:16",1
"18/07/18","17:30",0.0,35.4,48.6,1003.8,346.8,1.8,5.0,351.9,0.03,23.0,31.1,"17:28:32",1
"18/07/18","17:40",0.0,35.1,51.6,1003.8,346.4,1.8,3.7,326.4,0.03,23.7,31.0,"17:30:48",1
"18/07/18","17:50",0.0,34.9,51.6,1004.1,350.0,1.3,2.9,332.2,0.02,23.5,30.8,"17:40:32",1
"18/07/18","18:00",0.0,34.7,52.4,1003.4,12.5,1.3,3.1,37.1,0.02,23.6,30.8,"17:56:48",1
"18/07/18","18:10",0.0,34.3,52.0,1003.6,1.3,1.5,3.2,345.9,0.02,23.1,30.6,"18:09:04",1
"18/07/18","18:20",0.0,34.0,54.3,1003.6,13.0,1.5,3.2,359.1,0.01,23.5,30.7,"18:12:00",1
"18/07/18","18:30",0.0,33.7,54.5,1003.4,15.9,1.0,2.4,5.0,0.01,23.3,30.5,"18:26:00",1
"18/07/18","18:40",0.0,33.2,56.2,1003.1,356.2,0.8,2.4,332.6,0.01,23.3,30.4,"18:34:08",1
"18/07/18","18:50",0.0,32.5,58.2,1003.1,349.4,1.0,2.4,5.1,0.00,23.3,30.2,"18:42:16",1
"18/07/18","19:00",0.0,31.9,59.7,1002.6,350.3,1.3,3.4,358.5,0.00,23.1,30.1,"18:51:20",1
"18/07/18","19:10",0.0,31.4,61.9,1002.4,356.5,1.0,2.0,351.9,0.00,23.3,30.0,"19:02:32",1
"18/07/18","19:20",0.0,30.9,63.2,1002.4,7.6,1.0,1.8,349.7,0.00,23.1,29.9,"19:12:40",1
"18/07/18","19:30",0.0,30.8,63.9,1002.4,2.6,1.0,3.1,344.5,0.00,23.2,29.7,"19:21:52",1
"18/07/18","19:40",0.0,30.4,64.1,1002.4,359.3,1.0,2.5,338.9,0.00,22.9,29.6,"19:36:16",1
"18/07/18","19:50",0.0,30.2,64.4,1002.4,351.4,1.0,1.8,355.4,0.00,22.8,29.5,"19:47:12",1
"18/07/18","20:00",0.0,29.8,64.2,1002.4,349.5,1.1,2.4,344.9,0.00,22.3,29.4,"19:57:44",1
"18/07/18","20:10",0.0,29.7,64.1,1002.4,354.8,1.1,2.1,348.0,0.00,22.2,29.2,"20:01:52",1
"18/07/18","20:20",0.0,29.6,64.2,1001.9,347.5,1.1,2.5,333.3,0.00,22.2,29.4,"20:12:40",1
"18/07/18","20:30",0.0,29.1,65.7,1002.9,352.4,0.5,1.4,333.7,0.00,22.1,29.2,"20:23:20",1
"18/07/18","20:40",0.0,28.7,66.7,1002.6,347.8,0.7,1.2,353.0,0.00,21.9,28.8,"20:33:20",1
"18/07/18","20:50",0.0,28.1,68.9,1002.9,294.5,0.6,1.1,321.5,0.00,21.9,28.9,"20:42:24",1
"18/07/18","21:00",0.0,28.0,71.0,1002.9,319.8,1.2,2.0,335.2,0.00,22.3,28.8,"20:58:32",1
"18/07/18","21:10",0.0,28.2,70.4,1003.1,321.7,2.0,3.6,330.7,0.00,22.3,28.5,"21:08:32",1
"18/07/18","21:20",0.0,28.3,69.4,1002.9,328.9,2.3,3.7,342.6,0.00,22.2,28.3,"21:12:48",1
"18/07/18","21:30",0.0,28.3,68.7,1003.4,331.6,2.1,3.4,332.6,0.00,22.0,28.4,"21:20:16",1
"18/07/18","21:40",0.0,28.0,70.4,1003.1,335.1,1.8,3.4,334.3,0.00,22.2,28.4,"21:33:36",1
"18/07/18","21:50",0.0,27.7,71.3,1003.4,340.7,1.5,2.7,340.6,0.00,22.1,28.1,"21:42:24",1
"18/07/18","22:00",0.0,27.3,73.0,1003.6,342.8,1.1,1.9,342.5,0.00,22.1,28.2,"21:51:28",1
"18/07/18","22:10",0.0,26.8,74.9,1003.1,340.9,1.1,2.0,337.1,0.00,22.0,28.1,"22:07:24",1
"18/07/18","22:20",0.0,26.7,76.3,1003.4,337.1,1.5,2.6,336.4,0.00,22.2,28.2,"22:19:12",1
"18/07/18","22:30",0.0,26.9,75.2,1003.6,331.3,2.2,3.5,352.1,0.00,22.2,27.8,"22:27:36",1
"18/07/18","22:40",0.0,26.8,74.9,1003.6,333.0,1.3,2.5,341.3,0.00,22.0,27.8,"22:36:08",1
"18/07/18","22:50",0.0,26.6,76.1,1003.4,336.0,1.3,2.5,346.2,0.00,22.1,27.9,"22:40:48",1
"18/07/18","23:00",0.0,26.4,76.8,1003.6,332.6,1.3,2.5,324.7,0.00,22.0,27.7,"22:58:00",1
"18/07/18","23:10",0.0,26.2,77.6,1003.8,325.1,1.2,2.4,328.2,0.00,22.0,27.5,"23:01:28",1
"18/07/18","23:20",0.0,26.3,77.5,1004.1,338.8,1.7,2.9,354.8,0.00,22.1,27.6,"23:17:20",1
"18/07/18","23:30",0.0,26.2,77.7,1003.6,335.2,1.8,3.2,343.1,0.00,22.0,27.5,"23:23:28",1
"18/07/18","23:40",0.0,26.1,78.0,1003.8,334.8,1.6,2.6,327.5,0.00,22.0,27.4,"23:35:36",1
"18/07/18","23:50",0.0,26.0,78.2,1004.1,336.4,1.7,2.9,341.2,0.00,21.9,27.4,"23:47:12",1
"18/07/18","24:00",0.0,25.8,78.6,1003.8,331.9,1.5,3.2,344.2,0.00,21.8,27.1,"23:52:00",1
